Location: McFarlands Corners
(41.4117°N, 81.3382°W)
Time: 01:11:41
(UTC+00:00)

Transit 4A - Pass Details

Date: 17 February 2026
Orbit: 864 x 977 km, 66.8° (Epoch: 9 March)

Event Time Altitude Azimuth Distance (km) Brightness Sun altitude
Rises 17:56:12 0° 331° (NNW) 3,609 10.6 36.7°
Reaches altitude 10° 17:58:44 10° 333° (NNW) 2,676 10.0 36.6°
Maximum altitude 18:05:01 74° 59° (ENE) 1,002 8.6 36.5°
Drops below altitude 10° 18:11:22 10° 144° (SE) 2,713 11.0 36.3°
Sets 18:13:57 0° 146° (SSE) 3,661 11.6 36.2°
